Preview of NWS' New Version of Forecast
This preview is not operational and should not be used for support decisions.

Regional Weather Roundup (RWR)

Issued by National Weather Service (NWS)

                            
000
ASUS46 KSEW 172010
RWRWA 

WASHINGTON REGIONAL WEATHER ROUNDUP
NATIONAL WEATHER SERVICE SEATTLE WA
100 PM PDT MON JUN 17 2019

NOTE:"FAIR" INDICATES FEW OR NO CLOUDS BELOW 12,000 FEET WITH NO 
SIGNIFICANT WEATHER AND/OR OBSTRUCTIONS TO VISIBILITY.

WAZ507-509-555>559-172100-
SEATTLE, TACOMA, EVERETT, AND VICINITY
  
CITY           SKY/WX    TMP DP  RH WIND       PRES   REMARKS
EVERETT        SUNNY     66  55  67 SW7       30.16S                  
BOEING FIELD   PTSUNNY   66  53  63 VRB6      30.16S                  
RENTON         MOSUNNY   66  54  65 MISG      30.16S                  
SEATAC AIRPORT PTSUNNY   63  53  70 W6        30.17S                  
JBLM-MCCHORD   MOSUNNY   66  59  77 CALM      30.17S                  
PUYALLUP       CLOUDY    66  57  72 CALM      30.17S                  
BREMERTON      MOSUNNY   67  56  67 W5        30.16S                  
JBLM-FT LEWIS  PTSUNNY   67  60  77 CALM      30.16S                  
TACOMA NARROWS PTSUNNY   61  53  75 VRB3      30.17F                  
$$
 
WAZ001-503-506-510-514-515-172100-
NORTH INTERIOR
  
CITY           SKY/WX    TMP DP  RH WIND       PRES   REMARKS
BELLINGHAM     MOSUNNY   64  53  67 MISG      30.12S                  
FRIDAY HARBOR  SUNNY     64  53  67 SE12      30.14S                  
EASTSOUND      SUNNY     64  55  72 MISG        N/A                   
PORT ANGELES   SUNNY     63  54  72 NW12      30.15S                  
EDIZ HOOK      FAIR      59  52  78 W17G25    30.15S                  
PORT TOWNSEND  FAIR      68  57  68 S5        30.14R                  
NAS WHIDBEY    PTSUNNY   64  54  69 SW8       30.18F                  
ARLINGTON      MOSUNNY   70  56  61 VRB7      30.14S                  
BURLINGTON     MOSUNNY   73  57  56 S7        30.14F                  
$$
 
WAZ020-022-039-040-504-511-512-172100-
SOUTHWEST INTERIOR
  
CITY           SKY/WX    TMP DP  RH WIND       PRES   REMARKS
SHELTON        MOSUNNY   65  54  67 SW12      30.14F                  
OLYMPIA        PTSUNNY   65  53  65 CALM      30.16F                  
CHEHALIS       PTSUNNY   72  57  60 CALM      30.17S                  
KELSO          CLOUDY    68  55  63 W8        30.17S                  
VANCOUVER      MOSUNNY   68  53  58 SW6       30.14F                  
SCAPPOOSE, OR  MOSUNNY   70  56  61 VRB5      30.14S                  
PORTLAND, OR   MOSUNNY   71  52  50 NE5       30.15F                  
$$
 
WAZ021-516-517-172100-
WASHINGTON COAST
  
CITY           SKY/WX    TMP DP  RH WIND       PRES   REMARKS
FORKS          CLOUDY    63  56  78 W8        30.19R                  
HOQUIAM        MOSUNNY   62  58  86 W18       30.19S                  
ASTORIA, OR    CLOUDY    63  55  75 NW7       30.20S                  
$$
 
WAZ019-023-024-040-567>569-172100-
CASCADE MOUNTAINS AND COLUMBIA GORGE
  
CITY           SKY/WX    TMP DP  RH WIND       PRES   REMARKS
STAMPEDE PASS  MOSUNNY   64  48  56 VRB7G16   30.16R                  
TROUTDALE, OR  SUNNY     68  54  60 CALM      30.14F                  
HOOD RIVER, OR CLEAR     77  52  41 W5        30.03S                  
THE DALLES, OR SUNNY     80  55  42 NW23G30   29.98F                  
$$

WAZ026-027-041>044-520-521-172100-
EAST SLOPES
  
CITY           SKY/WX    TMP DP  RH WIND       PRES   REMARKS
OMAK           SUNNY     86  46  24 SW6       29.93F                  
WENATCHEE      SUNNY     85  40  20 W10       29.95F                  
ELLENSBURG     SUNNY     84  50  30 NW14G23   30.00S                  
YAKIMA         SUNNY     87  46  24 N7        29.96F                  
SUNNYSIDE ARPT CLEAR     85  49  29 E3        29.95                   
YAKIMA TC      FAIR      84  45  25 NW3       29.95F                  
$$

WAZ028-034-035-172100-
COLUMBIA BASIN
  
CITY           SKY/WX    TMP DP  RH WIND       PRES   REMARKS
EPHRATA        NOT AVBL                                               
MOSES LAKE     SUNNY     87  49  26 S8G18     29.95F                  
PASCO          SUNNY     87  50  27 SE5       29.95F                  
RICHLAND ARPT  CLEAR     89  50  26 S7        29.94F                  
HERMISTON, OR  SUNNY     86  48  26 SW6       29.96F                  
$$

WAZ036>038-172100-
NORTHEAST WASHINGTON
  
CITY           SKY/WX    TMP DP  RH WIND       PRES   REMARKS
SPOKANE GEIGER MOSUNNY   78  52  40 VRB6      30.01F                  
SPOKANE FELTS  MOSUNNY   80  54  40 CALM      30.00F                  
FAIRCHILD AFB  MOSUNNY   76  53  43 CALM      30.02F                  
COEURDALENE,ID MOSUNNY   79  55  43 NW6       30.01F                  
DEER PARK      MOSUNNY   77  53  43 MISG      30.01F                  
$$

WAZ029>033-172100-
SOUTHEAST WASHINGTON
  
CITY           SKY/WX    TMP DP  RH WIND       PRES   REMARKS
PULLMAN        SUNNY     75  52  44 CALM      30.04F                  
LEWISTON, ID   MOSUNNY   85  51  31 W6        29.96F                  
WALLA WALLA    SUNNY     81  48  31 VRB5      29.99F                  
PENDLETON, OR  SUNNY     83  47  28 W10G20    29.99F                  
$$